iso_date,epoch_date,Year,Hour,Min,DOY,POS_DOY,Lat,Lon,BP,Ts,Ta,has_bp,has_ts,has_ta,BuoyID,Buoy_Type,Buoy_Owner,Logistics,Hemisphere
2018-08-10T21:29:57Z,1533936597,2018,21,30,222.8958,220.0521,88.8992,51.9676,1010.7,4.4,2.4,yes,yes,yes,300234065629490,ICEB,AWI-USIABP,ODEN_AO18,North
2018-08-10T22:00:02Z,1533938403,2018,22,0,222.9167,222.9167,88.8998,51.9898,1010.7,4.3,2.3,yes,yes,yes,300234065629490,ICEB,AWI-USIABP,ODEN_AO18,North
2018-08-10T22:59:57Z,1533941997,2018,23,0,222.9583,222.9583,88.9012,52.0336,1010.8,4.1,1.9,yes,yes,yes,300234065629490,ICEB,AWI-USIABP,ODEN_AO18,North
2018-08-11T00:00:00Z,1533945600,2018,0,0,223.0,223.0,88.9022,52.0906,1011.0,4.0,1.9,yes,yes,yes,300234065629490,ICEB,AWI-USIABP,ODEN_AO18,North
2018-08-11T01:00:02Z,1533949203,2018,1,0,223.0417,223.0417,88.903,52.1582,1011.0,3.9,2.0,yes,yes,yes,300234065629490,ICEB,AWI-USIABP,ODEN_AO18,North
2018-08-11T01:59:57Z,1533952797,2018,2,0,223.0833,223.0833,88.9116,52.1954,1011.1,4.0,1.9,yes,yes,yes,300234065629490,ICEB,AWI-USIABP,ODEN_AO18,North
2018-08-11T03:00:00Z,1533956400,2018,3,0,223.125,223.125,88.964,51.2086,1011.3,4.1,1.9,yes,yes,yes,300234065629490,ICEB,AWI-USIABP,ODEN_AO18,North
2018-08-12T00:00:00Z,1534032000,2018,0,0,224.0,224.0,89.808,42.3882,1014.0,4.6,2.2,yes,yes,yes,300234065629490,ICEB,AWI-USIABP,ODEN_AO18,North
2018-08-12T01:00:02Z,1534035603,2018,1,0,224.0417,224.0417,89.8512,43.839,1014.2,4.6,2.0,yes,yes,yes,300234065629490,ICEB,AWI-USIABP,ODEN_AO18,North
2018-08-12T01:59:57Z,1534039197,2018,2,0,224.0833,224.0833,89.8898,40.1476,1014.2,4.6,1.7,yes,yes,yes,300234065629490,ICEB,AWI-USIABP,ODEN_AO18,North
2018-08-12T03:00:00Z,1534042800,2018,3,0,224.125,224.125,89.9022,38.9804,1014.0,4.7,2.3,yes,yes,yes,300234065629490,ICEB,AWI-USIABP,ODEN_AO18,North
2018-08-12T04:00:02Z,1534046403,2018,4,0,224.1667,224.1667,89.8934,39.578,1014.0,4.2,1.6,yes,yes,yes,300234065629490,ICEB,AWI-USIABP,ODEN_AO18,North
2018-08-12T04:59:57Z,1534049997,2018,5,0,224.2083,224.2083,89.8932,39.1718,1014.3,4.3,2.0,yes,yes,yes,300234065629490,ICEB,AWI-USIABP,ODEN_AO18,North
2018-08-12T06:00:00Z,1534053600,2018,6,0,224.25,224.25,89.8932,38.9554,1014.4,4.6,2.4,yes,yes,yes,300234065629490,ICEB,AWI-USIABP,ODEN_AO18,North
2018-08-12T07:00:02Z,1534057203,2018,7,0,224.2917,224.2917,89.8934,38.6714,1014.5,5.0,2.5,yes,yes,yes,300234065629490,ICEB,AWI-USIABP,ODEN_AO18,North
2018-08-12T07:59:57Z,1534060797,2018,8,0,224.3333,224.3333,89.8936,38.3788,1014.4,5.0,2.0,yes,yes,yes,300234065629490,ICEB,AWI-USIABP,ODEN_AO18,North
2018-08-12T09:00:00Z,1534064400,2018,9,0,224.375,224.375,89.8936,37.8454,1014.9,5.2,3.1,yes,yes,yes,300234065629490,ICEB,AWI-USIABP,ODEN_AO18,North
2018-08-12T10:00:02Z,1534068003,2018,10,0,224.4167,224.4167,89.8934,37.8086,1014.7,5.2,1.9,yes,yes,yes,300234065629490,ICEB,AWI-USIABP,ODEN_AO18,North
2018-08-12T10:59:57Z,1534071597,2018,11,0,224.4583,224.4583,89.8928,37.531,1015.1,5.5,3.0,yes,yes,yes,300234065629490,ICEB,AWI-USIABP,ODEN_AO18,North
2018-08-12T12:00:00Z,1534075200,2018,12,0,224.5,224.5,89.8922,37.5528,1014.9,6.0,2.4,yes,yes,yes,300234065629490,ICEB,AWI-USIABP,ODEN_AO18,North
2018-08-12T13:00:02Z,1534078803,2018,13,0,224.5417,224.5417,89.8912,37.4298,1015.0,6.3,2.2,yes,yes,yes,300234065629490,ICEB,AWI-USIABP,ODEN_AO18,North
2018-08-12T13:59:57Z,1534082397,2018,14,0,224.5833,224.5833,89.8904,37.0892,1015.6,7.5,3.9,yes,yes,yes,300234065629490,ICEB,AWI-USIABP,ODEN_AO18,North
2018-08-12T15:00:00Z,1534086000,2018,15,0,224.625,224.625,89.89,36.7026,1015.3,8.1,3.9,yes,yes,yes,300234065629490,ICEB,AWI-USIABP,ODEN_AO18,North
2018-08-12T16:00:02Z,1534089603,2018,16,0,224.6667,224.6667,89.8896,35.886,1015.0,9.2,4.0,yes,yes,yes,300234065629490,ICEB,AWI-USIABP,ODEN_AO18,North
2018-08-12T16:59:57Z,1534093197,2018,17,0,224.7083,224.7083,89.8896,35.0818,1014.6,9.3,3.8,yes,yes,yes,300234065629490,ICEB,AWI-USIABP,ODEN_AO18,North
2018-08-12T18:00:00Z,1534096800,2018,18,0,224.75,224.75,89.89,34.2864,1014.5,8.3,3.5,yes,yes,yes,300234065629490,ICEB,AWI-USIABP,ODEN_AO18,North
2018-08-12T19:00:02Z,1534100403,2018,19,0,224.7917,224.7917,89.8896,33.6152,1014.4,8.1,3.4,yes,yes,yes,300234065629490,ICEB,AWI-USIABP,ODEN_AO18,North
2018-08-12T19:59:57Z,1534103997,2018,20,0,224.8333,224.8333,89.8616,35.9588,1014.2,7.0,2.1,yes,yes,yes,300234065629490,ICEB,AWI-USIABP,ODEN_AO18,North
2018-08-12T21:00:00Z,1534107600,2018,21,0,224.875,224.875,89.824,38.1212,1014.1,6.4,2.0,yes,yes,yes,300234065629490,ICEB,AWI-USIABP,ODEN_AO18,North
2018-08-12T22:00:02Z,1534111203,2018,22,0,224.9167,224.9167,89.7642,36.1452,1014.0,6.0,1.7,yes,yes,yes,300234065629490,ICEB,AWI-USIABP,ODEN_AO18,North
2018-08-12T23:00:57Z,1534114858,2018,23,1,224.959,224.959,89.7636,23.3812,1013.9,5.5,2.3,yes,yes,yes,300234065629490,ICEB,AWI-USIABP,ODEN_AO18,North
2018-08-13T00:00:00Z,1534118400,2018,0,0,225.0,225.0,89.7174,24.8888,1013.7,5.3,1.9,yes,yes,yes,300234065629490,ICEB,AWI-USIABP,ODEN_AO18,North
2018-08-13T01:00:02Z,1534122003,2018,1,0,225.0417,225.0417,89.6922,30.7696,1013.7,5.1,2.0,yes,yes,yes,300234065629490,ICEB,AWI-USIABP,ODEN_AO18,North
2018-08-13T01:59:57Z,1534125597,2018,2,0,225.0833,225.0833,89.6782,35.0742,1013.5,4.9,1.7,yes,yes,yes,300234065629490,ICEB,AWI-USIABP,ODEN_AO18,North
2018-08-13T03:00:00Z,1534129200,2018,3,0,225.125,225.125,89.6692,36.783,1013.4,4.7,2.1,yes,yes,yes,300234065629490,ICEB,AWI-USIABP,ODEN_AO18,North
2018-08-13T04:00:02Z,1534132803,2018,4,0,225.1667,225.1667,89.6596,38.57,1013.3,4.8,2.2,yes,yes,yes,300234065629490,ICEB,AWI-USIABP,ODEN_AO18,North
2018-08-13T04:59:57Z,1534136397,2018,5,0,225.2083,225.2083,89.6332,41.0672,1013.0,4.6,2.0,yes,yes,yes,300234065629490,ICEB,AWI-USIABP,ODEN_AO18,North
2018-08-13T06:00:00Z,1534140000,2018,6,0,225.25,225.25,89.6254,42.4636,1012.8,4.6,2.2,yes,yes,yes,300234065629490,ICEB,AWI-USIABP,ODEN_AO18,North
2018-08-13T07:00:02Z,1534143603,2018,7,0,225.2917,225.2917,89.606,40.5728,1012.7,4.7,2.0,yes,yes,yes,300234065629490,ICEB,AWI-USIABP,ODEN_AO18,North
2018-08-13T07:59:57Z,1534147197,2018,8,0,225.3333,225.3333,89.6064,40.4522,1012.7,5.0,2.5,yes,yes,yes,300234065629490,ICEB,AWI-USIABP,ODEN_AO18,North
2018-08-13T09:00:00Z,1534150800,2018,9,0,225.375,225.375,89.6064,40.3634,1012.4,5.3,2.6,yes,yes,yes,300234065629490,ICEB,AWI-USIABP,ODEN_AO18,North
2018-08-13T10:00:02Z,1534154403,2018,10,0,225.4167,225.4167,89.6066,40.2686,1012.0,5.6,1.8,yes,yes,yes,300234065629490,ICEB,AWI-USIABP,ODEN_AO18,North
2018-08-13T10:59:57Z,1534157997,2018,11,0,225.4583,225.4583,89.6064,40.1744,1011.7,5.7,2.6,yes,yes,yes,300234065629490,ICEB,AWI-USIABP,ODEN_AO18,North
2018-08-13T12:01:00Z,1534161660,2018,12,1,225.5007,225.5007,89.6058,40.008,1011.7,5.8,2.3,yes,yes,yes,300234065629490,ICEB,AWI-USIABP,ODEN_AO18,North
2018-08-13T13:00:02Z,1534165203,2018,13,0,225.5417,225.5417,89.6048,39.9064,1011.3,5.6,2.5,yes,yes,yes,300234065629490,ICEB,AWI-USIABP,ODEN_AO18,North
2018-08-13T13:59:57Z,1534168797,2018,14,0,225.5833,225.5833,89.6034,39.7988,1011.1,5.4,2.3,yes,yes,yes,300234065629490,ICEB,AWI-USIABP,ODEN_AO18,North
2018-08-13T15:00:00Z,1534172400,2018,15,0,225.625,225.625,89.6024,39.6496,1010.8,5.4,2.5,yes,yes,yes,300234065629490,ICEB,AWI-USIABP,ODEN_AO18,North
2018-08-13T16:00:02Z,1534176003,2018,16,0,225.6667,225.6667,89.6014,39.4162,1010.3,5.8,2.4,yes,yes,yes,300234065629490,ICEB,AWI-USIABP,ODEN_AO18,North
2018-08-13T16:59:57Z,1534179597,2018,17,0,225.7083,225.7083,89.6008,39.148,1009.7,5.4,1.4,yes,yes,yes,300234065629490,ICEB,AWI-USIABP,ODEN_AO18,North
2018-08-13T18:00:00Z,1534183200,2018,18,0,225.75,225.75,89.5998,38.9616,1009.3,5.1,2.2,yes,yes,yes,300234065629490,ICEB,AWI-USIABP,ODEN_AO18,North
2018-08-13T19:00:02Z,1534186803,2018,19,0,225.7917,225.7917,89.6162,41.006,1009.0,4.8,2.4,yes,yes,yes,300234065629490,ICEB,AWI-USIABP,ODEN_AO18,North
2018-08-13T19:59:57Z,1534190397,2018,20,0,225.8333,225.8333,89.6174,41.0426,1008.3,4.1,-0.4,yes,yes,yes,300234065629490,ICEB,AWI-USIABP,ODEN_AO18,North
2018-08-13T21:00:00Z,1534194000,2018,21,0,225.875,225.875,89.6166,40.8306,1008.2,3.1,0.4,yes,yes,yes,300234065629490,ICEB,AWI-USIABP,ODEN_AO18,North
2018-08-13T22:00:02Z,1534197603,2018,22,0,225.9167,225.9167,89.615,40.6108,1007.7,3.1,0.2,yes,yes,yes,300234065629490,ICEB,AWI-USIABP,ODEN_AO18,North
2018-08-13T22:59:57Z,1534201197,2018,23,0,225.9583,225.9583,89.6132,40.4012,1007.3,2.9,0.0,yes,yes,yes,300234065629490,ICEB,AWI-USIABP,ODEN_AO18,North
2018-08-14T00:00:00Z,1534204800,2018,0,0,226.0,226.0,89.6112,40.094,1006.8,2.5,-0.5,yes,yes,yes,300234065629490,ICEB,AWI-USIABP,ODEN_AO18,North
2018-08-14T01:00:02Z,1534208403,2018,1,0,226.0417,226.0417,89.6084,39.8594,1006.5,2.3,-0.5,yes,yes,yes,300234065629490,ICEB,AWI-USIABP,ODEN_AO18,North
2018-08-14T01:59:57Z,1534211997,2018,2,0,226.0833,226.0833,89.6058,39.628,1005.9,2.2,-0.3,yes,yes,yes,300234065629490,ICEB,AWI-USIABP,ODEN_AO18,North
2018-08-14T03:00:00Z,1534215600,2018,3,0,226.125,226.125,89.6032,39.3772,1005.6,2.5,0.4,yes,yes,yes,300234065629490,ICEB,AWI-USIABP,ODEN_AO18,North
2018-08-14T04:00:02Z,1534219203,2018,4,0,226.1667,226.1667,89.6006,39.1486,1004.8,2.6,0.3,yes,yes,yes,300234065629490,ICEB,AWI-USIABP,ODEN_AO18,North
2018-08-14T04:59:57Z,1534222797,2018,5,0,226.2083,226.2083,89.5986,38.864,1004.3,2.5,0.4,yes,yes,yes,300234065629490,ICEB,AWI-USIABP,ODEN_AO18,North
2018-08-14T06:00:00Z,1534226400,2018,6,0,226.25,226.25,89.5966,38.6066,1003.9,2.4,0.2,yes,yes,yes,300234065629490,ICEB,AWI-USIABP,ODEN_AO18,North
2018-08-14T07:00:02Z,1534230003,2018,7,0,226.2917,226.2917,89.595,38.337,1003.4,2.3,0.0,yes,yes,yes,300234065629490,ICEB,AWI-USIABP,ODEN_AO18,North
2018-08-14T07:59:57Z,1534233597,2018,8,0,226.3333,226.3333,89.5934,38.1396,1003.0,2.3,0.4,yes,yes,yes,300234065629490,ICEB,AWI-USIABP,ODEN_AO18,North
2018-08-14T09:00:00Z,1534237200,2018,9,0,226.375,226.375,89.5916,37.9426,1002.6,2.4,0.6,yes,yes,yes,300234065629490,ICEB,AWI-USIABP,ODEN_AO18,North
2018-08-14T10:00:02Z,1534240803,2018,10,0,226.4167,226.4167,89.5898,37.7232,1002.3,2.5,0.5,yes,yes,yes,300234065629490,ICEB,AWI-USIABP,ODEN_AO18,North
2018-08-14T10:59:57Z,1534244397,2018,11,0,226.4583,226.4583,89.5874,37.6562,1001.8,2.5,0.9,yes,yes,yes,300234065629490,ICEB,AWI-USIABP,ODEN_AO18,North
2018-08-14T12:00:00Z,1534248000,2018,12,0,226.5,226.5,89.5852,37.4218,1001.3,2.5,1.2,yes,yes,yes,300234065629490,ICEB,AWI-USIABP,ODEN_AO18,North
2018-08-14T13:00:02Z,1534251603,2018,13,0,226.5417,226.5417,89.5822,37.2482,1000.9,2.4,1.0,yes,yes,yes,300234065629490,ICEB,AWI-USIABP,ODEN_AO18,North
2018-08-14T13:59:57Z,1534255197,2018,14,0,226.5833,226.5833,89.5796,37.1012,1001.1,3.2,1.4,yes,yes,yes,300234065629490,ICEB,AWI-USIABP,ODEN_AO18,North
2018-08-14T15:00:00Z,1534258800,2018,15,0,226.625,226.625,89.5772,36.937,999.9,3.1,1.1,yes,yes,yes,300234065629490,ICEB,AWI-USIABP,ODEN_AO18,North
2018-08-14T16:00:02Z,1534262403,2018,16,0,226.6667,226.6667,89.5746,36.7488,1000.0,3.1,1.2,yes,yes,yes,300234065629490,ICEB,AWI-USIABP,ODEN_AO18,North
2018-08-14T16:59:57Z,1534265997,2018,17,0,226.7083,226.7083,89.5728,36.5658,999.7,3.0,1.3,yes,yes,yes,300234065629490,ICEB,AWI-USIABP,ODEN_AO18,North
2018-08-14T18:00:00Z,1534269600,2018,18,0,226.75,226.75,89.5704,36.3528,999.4,2.7,1.1,yes,yes,yes,300234065629490,ICEB,AWI-USIABP,ODEN_AO18,North
2018-08-14T19:00:02Z,1534273203,2018,19,0,226.7917,226.7917,89.5684,36.1424,999.2,2.7,1.1,yes,yes,yes,300234065629490,ICEB,AWI-USIABP,ODEN_AO18,North
2018-08-14T19:59:57Z,1534276797,2018,20,0,226.8333,226.8333,89.5664,35.9756,998.9,2.8,1.5,yes,yes,yes,300234065629490,ICEB,AWI-USIABP,ODEN_AO18,North
2018-08-14T21:00:00Z,1534280400,2018,21,0,226.875,226.875,89.5642,35.852,998.8,2.9,1.5,yes,yes,yes,300234065629490,ICEB,AWI-USIABP,ODEN_AO18,North
2018-08-14T22:00:02Z,1534284003,2018,22,0,226.9167,226.9167,89.5618,35.7584,998.8,3.0,1.6,yes,yes,yes,300234065629490,ICEB,AWI-USIABP,ODEN_AO18,North
2018-08-14T22:59:57Z,1534287597,2018,23,0,226.9583,226.9583,89.559,35.6348,998.7,3.0,1.4,yes,yes,yes,300234065629490,ICEB,AWI-USIABP,ODEN_AO18,North
2018-08-15T00:00:00Z,1534291200,2018,0,0,227.0,227.0,89.5558,35.5218,998.5,3.1,1.6,yes,yes,yes,300234065629490,ICEB,AWI-USIABP,ODEN_AO18,North
2018-08-15T01:00:02Z,1534294803,2018,1,0,227.0417,227.0417,89.5524,35.4304,998.5,3.5,2.0,yes,yes,yes,300234065629490,ICEB,AWI-USIABP,ODEN_AO18,North
2018-08-15T01:59:57Z,1534298397,2018,2,0,227.0833,227.0833,89.5488,35.347,998.3,3.2,1.5,yes,yes,yes,300234065629490,ICEB,AWI-USIABP,ODEN_AO18,North
2018-08-15T03:00:00Z,1534302000,2018,3,0,227.125,227.125,89.545,35.2612,998.1,2.8,1.0,yes,yes,yes,300234065629490,ICEB,AWI-USIABP,ODEN_AO18,North
2018-08-15T04:00:02Z,1534305603,2018,4,0,227.1667,227.1667,89.5404,35.1606,998.2,2.4,0.7,yes,yes,yes,300234065629490,ICEB,AWI-USIABP,ODEN_AO18,North
2018-08-15T04:59:57Z,1534309197,2018,5,0,227.2083,227.2083,89.5356,35.076,998.2,2.0,0.1,yes,yes,yes,300234065629490,ICEB,AWI-USIABP,ODEN_AO18,North
2018-08-15T06:00:00Z,1534312800,2018,6,0,227.25,227.25,89.5308,34.9782,998.3,1.7,0.0,yes,yes,yes,300234065629490,ICEB,AWI-USIABP,ODEN_AO18,North
2018-08-15T07:00:02Z,1534316403,2018,7,0,227.2917,227.2917,89.5258,34.8854,998.5,1.5,-0.1,yes,yes,yes,300234065629490,ICEB,AWI-USIABP,ODEN_AO18,North
2018-08-15T07:59:57Z,1534319997,2018,8,0,227.3333,227.3333,89.5206,34.8142,998.8,1.3,-0.1,yes,yes,yes,300234065629490,ICEB,AWI-USIABP,ODEN_AO18,North
2018-08-15T09:00:00Z,1534323600,2018,9,0,227.375,227.375,89.5154,34.6884,999.2,1.2,-0.3,yes,yes,yes,300234065629490,ICEB,AWI-USIABP,ODEN_AO18,North
2018-08-15T10:01:03Z,1534327263,2018,10,1,227.4174,227.4174,89.5106,34.5962,999.7,1.1,-0.3,yes,yes,yes,300234065629490,ICEB,AWI-USIABP,ODEN_AO18,North
2018-08-15T10:59:57Z,1534330797,2018,11,0,227.4583,227.4583,89.5036,34.3668,1000.2,1.4,0.0,yes,yes,yes,300234065629490,ICEB,AWI-USIABP,ODEN_AO18,North
2018-08-15T12:00:00Z,1534334400,2018,12,0,227.5,227.5,89.4994,34.2758,1000.4,2.0,-0.1,yes,yes,yes,300234065629490,ICEB,AWI-USIABP,ODEN_AO18,North
2018-08-15T13:00:02Z,1534338003,2018,13,0,227.5417,227.5417,89.495,34.145,1000.7,2.6,0.2,yes,yes,yes,300234065629490,ICEB,AWI-USIABP,ODEN_AO18,North
2018-08-15T14:00:57Z,1534341658,2018,14,1,227.584,227.584,89.4908,33.9746,1001.0,2.7,-0.1,yes,yes,yes,300234065629490,ICEB,AWI-USIABP,ODEN_AO18,North
2018-08-15T15:00:00Z,1534345200,2018,15,0,227.625,227.625,89.4864,33.9412,1001.3,2.8,-0.1,yes,yes,yes,300234065629490,ICEB,AWI-USIABP,ODEN_AO18,North
2018-08-15T16:00:02Z,1534348803,2018,16,0,227.6667,227.6667,89.4826,33.8578,1001.7,2.9,-0.2,yes,yes,yes,300234065629490,ICEB,AWI-USIABP,ODEN_AO18,North
2018-08-15T16:59:57Z,1534352397,2018,17,0,227.7083,227.7083,89.479,33.714,1002.0,2.8,-0.4,yes,yes,yes,300234065629490,ICEB,AWI-USIABP,ODEN_AO18,North
2018-08-15T18:00:00Z,1534356000,2018,18,0,227.75,227.75,89.4758,33.5896,1002.5,2.8,-0.4,yes,yes,yes,300234065629490,ICEB,AWI-USIABP,ODEN_AO18,North
2018-08-15T19:00:02Z,1534359603,2018,19,0,227.7917,227.7917,89.4728,33.4532,1002.7,2.8,-0.5,yes,yes,yes,300234065629490,ICEB,AWI-USIABP,ODEN_AO18,North
2018-08-15T19:59:57Z,1534363197,2018,20,0,227.8333,227.8333,89.4704,33.3432,1003.2,2.6,-0.4,yes,yes,yes,300234065629490,ICEB,AWI-USIABP,ODEN_AO18,North
2018-08-15T21:00:00Z,1534366800,2018,21,0,227.875,227.875,89.4682,33.2402,1003.7,2.7,-0.3,yes,yes,yes,300234065629490,ICEB,AWI-USIABP,ODEN_AO18,North
2018-08-15T22:00:02Z,1534370403,2018,22,0,227.9167,227.9167,89.466,33.0942,1004.1,2.8,-0.1,yes,yes,yes,300234065629490,ICEB,AWI-USIABP,ODEN_AO18,North
2018-08-15T22:59:57Z,1534373997,2018,23,0,227.9583,227.9583,89.4638,32.9988,1004.4,3.1,0.0,yes,yes,yes,300234065629490,ICEB,AWI-USIABP,ODEN_AO18,North
2018-08-16T00:00:00Z,1534377600,2018,0,0,228.0,228.0,89.4614,32.8634,1004.7,3.2,0.1,yes,yes,yes,300234065629490,ICEB,AWI-USIABP,ODEN_AO18,North
2018-08-16T01:00:02Z,1534381203,2018,1,0,228.0417,228.0417,89.459,32.7358,1004.9,3.1,-0.4,yes,yes,yes,300234065629490,ICEB,AWI-USIABP,ODEN_AO18,North
2018-08-16T01:59:57Z,1534384797,2018,2,0,228.0833,228.0833,89.4566,32.6418,1005.2,3.2,-0.2,yes,yes,yes,300234065629490,ICEB,AWI-USIABP,ODEN_AO18,North
2018-08-16T03:00:00Z,1534388400,2018,3,0,228.125,228.125,89.4542,32.4178,1005.4,2.9,-0.5,yes,yes,yes,300234065629490,ICEB,AWI-USIABP,ODEN_AO18,North
2018-08-16T04:00:02Z,1534392003,2018,4,0,228.1667,228.1667,89.4522,32.2528,1005.7,2.8,-1.1,yes,yes,yes,300234065629490,ICEB,AWI-USIABP,ODEN_AO18,North
2018-08-16T04:59:57Z,1534395597,2018,5,0,228.2083,228.2083,89.4506,32.0924,1006.0,2.9,-1.8,yes,yes,yes,300234065629490,ICEB,AWI-USIABP,ODEN_AO18,North
2018-08-16T06:00:00Z,1534399200,2018,6,0,228.25,228.25,89.4496,31.8766,1006.6,3.7,-0.4,yes,yes,yes,300234065629490,ICEB,AWI-USIABP,ODEN_AO18,North
2018-08-16T07:00:02Z,1534402803,2018,7,0,228.2917,228.2917,89.449,31.7102,1006.8,4.5,0.3,yes,yes,yes,300234065629490,ICEB,AWI-USIABP,ODEN_AO18,North
2018-08-16T07:59:57Z,1534406397,2018,8,0,228.3333,228.3333,89.4486,31.5348,1006.7,4.6,-0.9,yes,yes,yes,300234065629490,ICEB,AWI-USIABP,ODEN_AO18,North
2018-08-16T09:00:00Z,1534410000,2018,9,0,228.375,228.375,89.4484,31.413,1006.9,4.6,0.5,yes,yes,yes,300234065629490,ICEB,AWI-USIABP,ODEN_AO18,North
2018-08-16T10:00:02Z,1534413603,2018,10,0,228.4167,228.4167,89.4484,31.2746,1006.8,4.4,-0.8,yes,yes,yes,300234065629490,ICEB,AWI-USIABP,ODEN_AO18,North
2018-08-16T10:59:57Z,1534417197,2018,11,0,228.4583,228.4583,89.4482,31.2092,1006.6,3.5,-0.9,yes,yes,yes,300234065629490,ICEB,AWI-USIABP,ODEN_AO18,North
2018-08-16T12:00:00Z,1534420800,2018,12,0,228.5,228.5,89.4478,31.052,1006.8,2.7,-2.2,yes,yes,yes,300234065629490,ICEB,AWI-USIABP,ODEN_AO18,North
2018-08-16T16:36:02Z,1534437363,2018,16,36,228.6917,225.8479,89.4472,30.9776,1007.9,0.9,-3.0,yes,yes,yes,300234065629490,ICEB,AWI-USIABP,ODEN_AO18,North
2018-08-16T16:59:57Z,1534438797,2018,17,0,228.7083,228.7083,89.4478,30.9114,1007.3,1.1,-3.2,yes,yes,yes,300234065629490,ICEB,AWI-USIABP,ODEN_AO18,North
2018-08-16T18:00:00Z,1534442400,2018,18,0,228.75,228.75,89.4492,30.7632,1006.8,1.0,-3.4,yes,yes,yes,300234065629490,ICEB,AWI-USIABP,ODEN_AO18,North
2018-08-16T19:00:02Z,1534446003,2018,19,0,228.7917,228.7917,89.451,30.6308,1006.6,1.0,-3.3,yes,yes,yes,300234065629490,ICEB,AWI-USIABP,ODEN_AO18,North
2018-08-16T19:59:57Z,1534449597,2018,20,0,228.8333,228.8333,89.4532,30.5148,1006.3,1.0,-2.7,yes,yes,yes,300234065629490,ICEB,AWI-USIABP,ODEN_AO18,North
2018-08-16T21:00:00Z,1534453200,2018,21,0,228.875,228.875,89.4558,30.4204,1006.3,1.0,-2.5,yes,yes,yes,300234065629490,ICEB,AWI-USIABP,ODEN_AO18,North
2018-08-16T22:00:02Z,1534456803,2018,22,0,228.9167,228.9167,89.4584,30.343,1006.1,1.0,-2.3,yes,yes,yes,300234065629490,ICEB,AWI-USIABP,ODEN_AO18,North
2018-08-16T22:59:57Z,1534460397,2018,23,0,228.9583,228.9583,89.4608,30.2868,1005.8,0.9,-2.8,yes,yes,yes,300234065629490,ICEB,AWI-USIABP,ODEN_AO18,North
2018-08-17T00:00:00Z,1534464000,2018,0,0,229.0,229.0,89.4634,30.2392,1005.6,0.9,-2.7,yes,yes,yes,300234065629490,ICEB,AWI-USIABP,ODEN_AO18,North
2018-08-17T01:00:02Z,1534467603,2018,1,0,229.0417,229.0417,89.4658,30.203,1005.4,0.9,-2.9,yes,yes,yes,300234065629490,ICEB,AWI-USIABP,ODEN_AO18,North
2018-08-17T01:59:57Z,1534471197,2018,2,0,229.0833,229.0833,89.468,30.1628,1005.1,0.9,-2.3,yes,yes,yes,300234065629490,ICEB,AWI-USIABP,ODEN_AO18,North
2018-08-17T03:00:00Z,1534474800,2018,3,0,229.125,229.125,89.4704,30.1256,1004.8,0.9,-1.7,yes,yes,yes,300234065629490,ICEB,AWI-USIABP,ODEN_AO18,North
2018-08-17T04:00:02Z,1534478403,2018,4,0,229.1667,229.1667,89.4726,30.0786,1004.5,0.9,-1.9,yes,yes,yes,300234065629490,ICEB,AWI-USIABP,ODEN_AO18,North
2018-08-17T05:00:57Z,1534482058,2018,5,1,229.209,229.209,89.4752,30.0306,1004.4,0.9,-1.5,yes,yes,yes,300234065629490,ICEB,AWI-USIABP,ODEN_AO18,North
2018-08-17T06:00:00Z,1534485600,2018,6,0,229.25,229.25,89.478,29.9922,1004.2,0.9,-1.3,yes,yes,yes,300234065629490,ICEB,AWI-USIABP,ODEN_AO18,North
2018-08-17T07:00:02Z,1534489203,2018,7,0,229.2917,229.2917,89.4812,29.9826,1004.0,0.9,-0.7,yes,yes,yes,300234065629490,ICEB,AWI-USIABP,ODEN_AO18,North
2018-08-17T07:59:57Z,1534492797,2018,8,0,229.3333,229.3333,89.4844,30.0138,1003.8,0.9,-0.4,yes,yes,yes,300234065629490,ICEB,AWI-USIABP,ODEN_AO18,North
2018-08-17T09:00:00Z,1534496400,2018,9,0,229.375,229.375,89.4876,30.0826,1003.8,0.9,-0.3,yes,yes,yes,300234065629490,ICEB,AWI-USIABP,ODEN_AO18,North
2018-08-17T10:00:02Z,1534500003,2018,10,0,229.4167,229.4167,89.491,30.1908,1003.9,0.9,-0.3,yes,yes,yes,300234065629490,ICEB,AWI-USIABP,ODEN_AO18,North
2018-08-17T10:59:57Z,1534503597,2018,11,0,229.4583,229.4583,89.4938,30.3318,1003.9,0.9,-0.2,yes,yes,yes,300234065629490,ICEB,AWI-USIABP,ODEN_AO18,North
2018-08-17T12:00:00Z,1534507200,2018,12,0,229.5,229.5,89.4964,30.5036,1003.7,0.9,-0.2,yes,yes,yes,300234065629490,ICEB,AWI-USIABP,ODEN_AO18,North
2018-08-17T13:00:02Z,1534510803,2018,13,0,229.5417,229.5417,89.4986,30.7026,1003.8,0.9,-0.1,yes,yes,yes,300234065629490,ICEB,AWI-USIABP,ODEN_AO18,North
2018-08-17T13:59:57Z,1534514397,2018,14,0,229.5833,229.5833,89.5006,30.915,1003.8,0.9,-0.1,yes,yes,yes,300234065629490,ICEB,AWI-USIABP,ODEN_AO18,North
2018-08-17T15:00:00Z,1534518000,2018,15,0,229.625,229.625,89.5024,31.1198,1003.7,0.9,0.0,yes,yes,yes,300234065629490,ICEB,AWI-USIABP,ODEN_AO18,North
2018-08-17T16:00:02Z,1534521603,2018,16,0,229.6667,229.6667,89.5044,31.3062,1003.6,0.9,0.2,yes,yes,yes,300234065629490,ICEB,AWI-USIABP,ODEN_AO18,North
2018-08-17T16:59:57Z,1534525197,2018,17,0,229.7083,229.7083,89.5066,31.4942,1003.6,0.9,0.2,yes,yes,yes,300234065629490,ICEB,AWI-USIABP,ODEN_AO18,North
2018-08-17T18:00:00Z,1534528800,2018,18,0,229.75,229.75,89.509,31.6988,1003.6,0.9,0.3,yes,yes,yes,300234065629490,ICEB,AWI-USIABP,ODEN_AO18,North
2018-08-17T19:00:02Z,1534532403,2018,19,0,229.7917,229.7917,89.512,31.93,1003.7,0.9,0.6,yes,yes,yes,300234065629490,ICEB,AWI-USIABP,ODEN_AO18,North
2018-08-17T19:59:57Z,1534535997,2018,20,0,229.8333,229.8333,89.515,32.1962,1003.8,1.0,0.7,yes,yes,yes,300234065629490,ICEB,AWI-USIABP,ODEN_AO18,North
2018-08-17T21:00:00Z,1534539600,2018,21,0,229.875,229.875,89.5182,32.5074,1004.0,1.0,0.9,yes,yes,yes,300234065629490,ICEB,AWI-USIABP,ODEN_AO18,North
2018-08-17T22:00:02Z,1534543203,2018,22,0,229.9167,229.9167,89.5212,32.8666,1004.2,1.0,1.2,yes,yes,yes,300234065629490,ICEB,AWI-USIABP,ODEN_AO18,North
2018-08-17T22:59:57Z,1534546797,2018,23,0,229.9583,229.9583,89.524,33.239,1004.4,1.0,1.3,yes,yes,yes,300234065629490,ICEB,AWI-USIABP,ODEN_AO18,North
2018-08-18T00:00:00Z,1534550400,2018,0,0,230.0,230.0,89.5266,33.5986,1004.5,1.0,1.3,yes,yes,yes,300234065629490,ICEB,AWI-USIABP,ODEN_AO18,North
2018-08-18T01:00:02Z,1534554003,2018,1,0,230.0417,230.0417,89.529,33.9254,1004.4,1.0,1.2,yes,yes,yes,300234065629490,ICEB,AWI-USIABP,ODEN_AO18,North
2018-08-18T01:59:57Z,1534557597,2018,2,0,230.0833,230.0833,89.5316,34.2234,1004.2,1.0,1.2,yes,yes,yes,300234065629490,ICEB,AWI-USIABP,ODEN_AO18,North
2018-08-18T03:00:00Z,1534561200,2018,3,0,230.125,230.125,89.5344,34.522,1004.3,1.0,1.1,yes,yes,yes,300234065629490,ICEB,AWI-USIABP,ODEN_AO18,North
2018-08-18T04:00:02Z,1534564803,2018,4,0,230.1667,230.1667,89.5376,34.8072,1004.3,1.0,1.1,yes,yes,yes,300234065629490,ICEB,AWI-USIABP,ODEN_AO18,North
2018-08-18T04:59:57Z,1534568397,2018,5,0,230.2083,230.2083,89.5406,35.0904,1004.5,1.0,1.1,yes,yes,yes,300234065629490,ICEB,AWI-USIABP,ODEN_AO18,North
2018-08-18T06:00:00Z,1534572000,2018,6,0,230.25,230.25,89.5434,35.4096,1004.6,1.0,1.1,yes,yes,yes,300234065629490,ICEB,AWI-USIABP,ODEN_AO18,North
2018-08-18T07:00:02Z,1534575603,2018,7,0,230.2917,230.2917,89.546,35.6938,1004.6,1.0,1.1,yes,yes,yes,300234065629490,ICEB,AWI-USIABP,ODEN_AO18,North
2018-08-18T07:59:57Z,1534579197,2018,8,0,230.3333,230.3333,89.5482,35.973,1005.0,1.0,1.2,yes,yes,yes,300234065629490,ICEB,AWI-USIABP,ODEN_AO18,North
2018-08-18T09:00:00Z,1534582800,2018,9,0,230.375,230.375,89.5498,36.281,1005.2,1.0,1.0,yes,yes,yes,300234065629490,ICEB,AWI-USIABP,ODEN_AO18,North
2018-08-18T10:00:02Z,1534586403,2018,10,0,230.4167,230.4167,89.5512,36.6152,1005.5,1.0,1.1,yes,yes,yes,300234065629490,ICEB,AWI-USIABP,ODEN_AO18,North